Lid_Strength_Index
2 2 2 2 3 3 3 2 2 2 2 2 1 1 1 2 2 2 2 2 2 2 2 2 2 1 1 3 5 -1 -2 -1 -0 2 3 4 5 5 7 6 5 6 5 4 4 4 4
3 2 3 3 3 3 3 2 2 2 2 1 2 2 2 2 2 2 2 2 2 2 2 2 2 2 2 6 1 -1 -0 0 1 3 3 4 5 4 5 6 6 5 6 5 4 5 4
3 3 3 3 3 3 3 3 2 2 2 2 2 2 3 2 2 2 2 2 2 2 2 3 2 1 3 4 1 -0 -0 1 1 2 3 3 3 5 5 6 5 6 8 7 6 6 5
3 3 3 3 3 3 3 3 3 3 3 2 2 2 2 2 2 2 2 2 2 2 2 2 2 1 4 3 1 1 0 1 2 2 2 2 3 4 5 4 6 7 7 9 7 6 6
3 4 4 4 3 3 3 3 3 4 3 3 3 2 2 2 2 2 2 2 1 1 1 2 2 2 5 2 4 2 1 3 3 2 2 2 3 5 5 7 8 7 10 9 7 6 7
4 4 4 4 4 4 3 3 3 4 4 4 3 3 3 3 2 3 2 2 1 1 1 0 0 4 3 5 3 3 2 3 4 4 4 5 5 6 6 7 11 9 9 8 8 6 7
4 4 4 4 4 4 4 4 4 4 4 4 4 3 3 3 3 3 2 0 3 4 2 4 4 4 4 3 2 3 3 4 4 5 7 5 7 8 7 6 6 8 8 9 7 6 8
4 4 4 4 4 4 4 4 5 5 5 4 4 4 3 3 3 3 2 2 3 2 5 3 3 3 3 3 6 5 3 6 6 8 6 7 8 6 6 6 7 7 8 8 7 6 7
4 4 4 4 4 4 4 5 5 5 5 4 5 4 4 3 3 2 1 3 1 1 5 5 4 4 3 2 5 5 4 6 7 8 8 8 7 7 7 7 8 8 9 8 9 7 7
4 4 4 4 4 4 4 5 5 5 5 5 5 4 4 4 5 1 2 1 0 1 8 7 6 4 3 3 5 2 3 5 7 8 7 8 6 8 8 8 7 9 7 7 8 9 11
4 4 4 5 4 4 5 5 6 5 5 5 5 5 4 4 1 2 2 1 1 1 15 7 6 2 3 5 5 5 2 4 7 7 7 8 7 8 8 8 6 8 6 8 8 9 9
4 4 4 5 4 4 5 6 6 6 5 5 5 5 4 2 1 2 1 1 1 10 15 8 6 6 6 5 5 4 4 3 4 6 6 7 5 6 7 6 6 6 7 8 8 9 13
4 5 5 5 5 5 6 6 6 6 6 6 6 5 5 2 3 1 1 2 10 13 7 8 7 6 6 7 6 6 6 7 8 10 10 7 7 6 6 9 6 7 9 12 13 13 14
6 6 6 5 5 5 6 6 6 6 6 6 6 6 4 2 1 1 2 6 13 9 8 6 7 6 8 6 6 6 7 8 6 7 9 11 12 8 6 8 9 9 9 12 16 15 13
7 7 6 6 5 6 6 6 7 7 7 7 7 2 2 0 1 2 5 10 10 8 7 7 7 8 8 7 7 7 7 8 7 6 10 11 11 7 6 6 7 9 11 8 11 10 13
7 7 7 6 6 6 6 7 7 7 7 7 5 3 3 1 1 3 7 10 8 6 6 6 9 8 9 8 8 8 8 7 7 6 5 8 12 7 7 6 6 7 7 13 11 16 16
7 7 7 6 6 6 6 7 7 7 7 7 4 6 2 1 2 5 9 8 8 6 6 7 8 8 8 8 8 8 9 7 6 6 5 7 9 9 7 9 10 9 10 9 9 13 17
7 7 7 7 6 6 7 7 7 7 8 7 4 8 2 2 7 6 9 8 10 8 6 6 6 7 8 8 8 8 9 7 6 5 8 6 9 12 10 7 6 7 9 10 13 13 11
7 7 7 7 6 6 7 7 7 7 8 7 7 7 3 4 9 9 8 9 9 9 8 8 7 6 6 8 10 8 7 6 5 6 7 7 11 16 12 9 7 8 8 8 9 10 13
7 7 7 7 6 6 7 7 7 7 8 7 7 9 7 6 6 9 10 10 11 9 8 7 7 6 7 8 7 9 8 7 5 5 6 6 9 11 14 12 12 14 11 9 10 15 14
7 8 7 7 6 6 7 7 7 8 8 6 7 9 9 11 9 9 9 10 11 10 7 7 8 7 8 9 8 8 7 7 6 5 6 6 11 10 10 9 9 10 10 9 10 10 13
7 8 8 8 7 7 7 7 7 8 8 6 10 10 9 10 8 9 11 10 11 9 9 9 9 8 7 8 8 9 7 7 8 6 6 6 12 10 12 9 9 10 9 8 8 8 9
7 8 8 8 7 7 7 7 8 7 8 8 8 7 9 9 9 10 10 11 11 9 8 8 8 8 8 7 6 5 5 5 5 7 8 9 11 12 15 10 11 13 9 9 8 7 8
7 7 8 8 7 7 7 7 8 7 8 8 8 9 10 11 10 10 11 11 11 10 10 8 7 8 6 4 4 4 5 5 5 6 6 9 10 11 14 11 17 9 7 7 8 7 7
7 7 7 8 8 7 7 7 7 7 7 8 8 9 10 12 10 10 11 11 10 8 8 8 7 5 4 5 8 10 10 11 10 8 8 7 10 14 16 15 11 9 9 9 10 10 7
7 7 7 8 8 7 7 7 7 7 7 7 7 7 9 11 10 10 11 10 10 9 8 7 5 3 4 7 8 13 13 11 14 12 8 8 8 13 13 18 18 12 8 6 6 13 7
7 7 7 8 8 7 6 6 7 7 7 7 7 6 9 11 9 9 11 11 8 7 8 7 7 5 4 7 10 12 12 9 14 12 14 13 12 15 14 16 12 8 7 6 14 12 7
6 7 6 7 7 7 6 6 6 7 7 7 8 6 9 10 9 8 9 9 7 7 8 6 7 6 6 10 11 11 11 10 11 9 12 13 14 14 14 17 17 7 7 12 8 6 6
6 6 6 7 7 6 6 6 6 7 7 7 9 7 7 10 9 7 7 6 6 5 6 6 7 6 6 8 9 9 10 9 10 14 8 14 11 14 14 13 7 5 6 5 5 6 6